This is the latest recevied weather packets stored in our database for station/object KD5NDU-15. If no packets are shown the sender has not sent any weather packets the latest 10 day(s).
| Time | Temp. | Humidity | Pressure | Rain* | Wind** | Luminosity | Snow |
|---|---|---|---|---|---|---|---|
| 1778173540 | 20.56° C | 66% | 1013.9 hPa | 0 mm | - | 921 W/m² | - |
| 1778173256 | 20° C | 64% | 1014.2 hPa | 0 mm | - | 916 W/m² | - |
| 1778172940 | 20° C | 65% | 1014.3 hPa | 0 mm | - | 907 W/m² | - |
| 1778172640 | 20° C | 69% | 1014.3 hPa | 0 mm | - | 898 W/m² | - |
| 1778172340 | 19.44° C | 68% | 1014.4 hPa | 0 mm | - | 893 W/m² | - |
| 1778172040 | 19.44° C | 67% | 1014.4 hPa | 0 mm | - | 889 W/m² | - |
| 1778171765 | 19.44° C | 66% | 1014.4 hPa | 0 mm | - | 882 W/m² | - |
| 1778171440 | 19.44° C | 68% | 1014.4 hPa | 0 mm | - | 875 W/m² | - |
| 1778171145 | 18.89° C | 66% | 1014.4 hPa | 0 mm | - | 868 W/m² | - |
| 1778170244 | 18.89° C | 68% | 1014.6 hPa | 0 mm | - | 844 W/m² | - |
| 1778169963 | 18.89° C | 69% | 1014.5 hPa | 0 mm | - | 831 W/m² | - |
| 1778169640 | 18.89° C | 68% | 1014.4 hPa | 0 mm | - | 826 W/m² | - |
| 1778169375 | 18.33° C | 72% | 1014.7 hPa | 0 mm | - | 819 W/m² | - |
| 1778169047 | 18.33° C | 72% | 1014.5 hPa | 0 mm | - | 819 W/m² | - |
| 1778168742 | 18.33° C | 73% | 1014.3 hPa | 0 mm | - | 814 W/m² | - |
| 1778168440 | 17.78° C | 72% | 1014.7 hPa | 0 mm | - | 791 W/m² | - |
| 1778168144 | 17.78° C | 75% | 1014.6 hPa | 0 mm | - | 788 W/m² | - |
| 1778167840 | 17.78° C | 74% | 1014.8 hPa | 0 mm | - | 779 W/m² | - |
| 1778167542 | 17.78° C | 75% | 1014.8 hPa | 0 mm | - | 772 W/m² | - |
| 1778167294 | 17.22° C | 74% | 1014.8 hPa | 0 mm | - | 768 W/m² | - |
| 1778166950 | 17.22° C | 76% | 1014.8 hPa | 0 mm | - | 747 W/m² | - |
| 1778166670 | 17.22° C | 77% | 1014.8 hPa | 0 mm | - | 733 W/m² | - |
| 1778166347 | 17.22° C | 77% | 1014.8 hPa | 0 mm | - | 715 W/m² | - |
| 1778166047 | 17.22° C | 79% | 1014.8 hPa | 0 mm | - | 703 W/m² | - |
| 1778165750 | 16.67° C | 81% | 1014.7 hPa | 0 mm | - | 686 W/m² | - |
* Rain latest hour (hover to see other rain measurements)
** Current wind speed in m/s (hover to see current wind gust speed)